TimeCDT,TemperatureF,Dew PointF,Humidity,Sea Level PressureIn,VisibilityMPH,Wind Direction,Wind SpeedMPH,Gust SpeedMPH,PrecipitationIn,Events,Conditions,WindDirDegrees,DateUTC
12:15 AM,44.6,39.4,82,29.72,10.0,SE,6.9,-,N/A,,Clear,130,2012-10-21 05:15:00
12:35 AM,45.7,40.1,81,29.72,10.0,SE,5.8,-,N/A,,Clear,140,2012-10-21 05:35:00
12:55 AM,44.6,39.2,81,29.72,10.0,SE,6.9,-,N/A,,Clear,130,2012-10-21 05:55:00
1:15 AM,44.8,39.9,83,29.72,10.0,SE,6.9,-,N/A,,Clear,130,2012-10-21 06:15:00
1:35 AM,45.1,39.6,81,29.71,10.0,SE,8.1,-,N/A,,Clear,130,2012-10-21 06:35:00
1:55 AM,44.2,39.6,84,29.71,10.0,SE,6.9,-,N/A,,Clear,130,2012-10-21 06:55:00
2:15 AM,44.1,39.4,84,29.70,10.0,SE,6.9,-,N/A,,Clear,130,2012-10-21 07:15:00
2:35 AM,44.4,39.9,84,29.70,10.0,SE,8.1,-,N/A,,Clear,130,2012-10-21 07:35:00
2:55 AM,44.6,40.1,84,29.70,10.0,SE,8.1,-,N/A,,Clear,140,2012-10-21 07:55:00
3:15 AM,43.5,39.6,86,29.70,10.0,SE,5.8,-,N/A,,Clear,130,2012-10-21 08:15:00
3:35 AM,42.8,39.2,87,29.70,10.0,SE,4.6,-,N/A,,Clear,130,2012-10-21 08:35:00
3:55 AM,42.6,39.4,88,29.70,10.0,SE,6.9,-,N/A,,Clear,140,2012-10-21 08:55:00
4:15 AM,41.9,38.7,88,29.70,10.0,SE,8.1,-,N/A,,Clear,140,2012-10-21 09:15:00
4:35 AM,42.8,39.4,88,29.70,10.0,SE,10.4,-,N/A,,Clear,140,2012-10-21 09:35:00
4:55 AM,43.7,40.1,87,29.70,10.0,SE,9.2,-,N/A,,Clear,140,2012-10-21 09:55:00
5:15 AM,43.7,40.3,88,29.70,10.0,SE,8.1,-,N/A,,Clear,140,2012-10-21 10:15:00
5:35 AM,42.8,39.6,88,29.70,10.0,SSE,6.9,-,N/A,,Clear,150,2012-10-21 10:35:00
5:55 AM,43.0,39.7,88,29.71,10.0,SSE,5.8,-,N/A,,Clear,150,2012-10-21 10:55:00
6:15 AM,43.7,40.1,87,29.71,10.0,SSE,5.8,-,N/A,,Clear,150,2012-10-21 11:15:00
6:35 AM,42.8,39.6,88,29.71,10.0,SSE,6.9,-,N/A,,Clear,150,2012-10-21 11:35:00
6:55 AM,42.6,39.4,88,29.71,10.0,SSE,6.9,-,N/A,,Clear,150,2012-10-21 11:55:00
7:15 AM,42.4,39.4,89,29.71,10.0,SSE,6.9,-,N/A,,Clear,150,2012-10-21 12:15:00
7:35 AM,42.8,39.7,89,29.73,10.0,Calm,Calm,-,N/A,,Clear,0,2012-10-21 12:35:00
7:55 AM,41.7,39.2,91,29.73,10.0,SE,3.5,-,N/A,,Clear,130,2012-10-21 12:55:00
8:15 AM,41.7,39.2,91,29.74,10.0,SSE,3.5,-,N/A,,Clear,150,2012-10-21 13:15:00
8:35 AM,43.2,40.5,90,29.75,10.0,SSE,4.6,-,N/A,,Clear,160,2012-10-21 13:35:00
8:55 AM,45.5,42.4,89,29.76,10.0,Calm,Calm,-,N/A,,Clear,0,2012-10-21 13:55:00
9:15 AM,48.4,44.2,86,29.77,10.0,SE,4.6,-,N/A,,Clear,140,2012-10-21 14:15:00
9:35 AM,50.0,45.3,84,29.76,10.0,SSE,4.6,-,N/A,,Clear,150,2012-10-21 14:35:00
9:55 AM,52.0,46.0,80,29.77,10.0,SSE,8.1,-,N/A,,Clear,160,2012-10-21 14:55:00
10:15 AM,53.8,46.6,77,29.78,10.0,South,5.8,-,N/A,,Clear,180,2012-10-21 15:15:00
10:35 AM,56.5,48.0,73,29.78,10.0,South,9.2,-,N/A,,Clear,170,2012-10-21 15:35:00
10:55 AM,59.9,49.6,69,29.77,10.0,South,9.2,-,N/A,,Clear,170,2012-10-21 15:55:00
11:15 AM,62.4,50.4,65,29.77,10.0,South,9.2,-,N/A,,Clear,170,2012-10-21 16:15:00
11:35 AM,64.9,51.4,62,29.76,10.0,South,8.1,-,N/A,,Clear,180,2012-10-21 16:35:00
12:15 PM,68.9,52.5,56,29.77,10.0,South,5.8,-,N/A,,Clear,170,2012-10-21 17:15:00
12:35 PM,70.7,53.2,54,29.76,10.0,South,5.8,-,N/A,,Clear,180,2012-10-21 17:35:00
12:55 PM,72.5,54.3,53,29.75,10.0,South,4.6,-,N/A,,Clear,180,2012-10-21 17:55:00
1:15 PM,73.6,55.4,53,29.74,10.0,SE,6.9,-,N/A,,Clear,130,2012-10-21 18:15:00
1:35 PM,75.4,56.5,52,29.73,10.0,SE,8.1,-,N/A,,Clear,140,2012-10-21 18:35:00
1:55 PM,76.6,57.7,52,29.72,10.0,SE,5.8,-,N/A,,Clear,140,2012-10-21 18:55:00
2:15 PM,77.0,57.7,51,29.72,10.0,SE,6.9,-,N/A,,Clear,130,2012-10-21 19:15:00
2:35 PM,78.4,58.5,50,29.71,10.0,SE,10.4,-,N/A,,Clear,140,2012-10-21 19:35:00
2:55 PM,78.4,58.6,50,29.71,10.0,East,5.8,-,N/A,,Clear,100,2012-10-21 19:55:00
3:15 PM,79.7,58.6,48,29.70,10.0,ESE,9.2,-,N/A,,Clear,120,2012-10-21 20:15:00
3:35 PM,80.1,57.6,46,29.70,10.0,SE,12.7,23.0,N/A,,Clear,140,2012-10-21 20:35:00
3:55 PM,79.7,57.0,46,29.71,10.0,SSE,12.7,-,N/A,,Clear,150,2012-10-21 20:55:00
4:15 PM,79.7,58.1,47,29.71,10.0,SSE,10.4,-,N/A,,Clear,150,2012-10-21 21:15:00
4:35 PM,79.5,57.9,47,29.70,10.0,SSE,9.2,-,N/A,,Clear,150,2012-10-21 21:35:00
4:55 PM,79.5,58.5,48,29.70,10.0,SE,6.9,-,N/A,,Clear,140,2012-10-21 21:55:00
5:15 PM,79.0,58.5,49,29.70,10.0,East,8.1,-,N/A,,Clear,90,2012-10-21 22:15:00
5:35 PM,77.7,58.6,52,29.71,10.0,East,8.1,-,N/A,,Scattered Clouds,90,2012-10-21 22:35:00
5:55 PM,75.7,58.8,56,29.71,10.0,East,6.9,-,N/A,,Mostly Cloudy,80,2012-10-21 22:55:00
6:15 PM,74.3,58.8,58,29.72,10.0,East,6.9,-,N/A,,Overcast,80,2012-10-21 23:15:00
6:35 PM,72.9,59.0,62,29.72,10.0,ENE,6.9,-,N/A,,Overcast,70,2012-10-21 23:35:00
6:55 PM,72.5,59.0,62,29.72,10.0,ENE,6.9,-,N/A,,Overcast,60,2012-10-21 23:55:00
7:15 PM,70.9,59.0,66,29.73,10.0,ENE,6.9,-,N/A,,Overcast,70,2012-10-22 00:15:00
7:35 PM,72.5,61.0,67,29.74,10.0,SE,9.2,-,N/A,,Overcast,130,2012-10-22 00:35:00
7:55 PM,71.1,61.7,72,29.75,10.0,SE,10.4,-,N/A,,Mostly Cloudy,140,2012-10-22 00:55:00
8:15 PM,69.8,61.7,75,29.76,10.0,SE,6.9,-,N/A,,Overcast,130,2012-10-22 01:15:00
8:35 PM,68.4,61.3,78,29.76,10.0,Calm,Calm,-,N/A,,Overcast,0,2012-10-22 01:35:00
8:55 PM,67.3,60.8,80,29.76,10.0,Calm,Calm,-,N/A,,Overcast,0,2012-10-22 01:55:00
9:15 PM,64.8,59.9,84,29.77,10.0,ESE,4.6,-,N/A,,Scattered Clouds,120,2012-10-22 02:15:00
9:35 PM,62.8,58.6,86,29.78,7.0,ESE,5.8,-,N/A,,Scattered Clouds,110,2012-10-22 02:35:00
9:55 PM,61.7,58.1,88,29.78,7.0,ESE,4.6,-,N/A,,Scattered Clouds,110,2012-10-22 02:55:00
10:15 PM,61.3,58.3,90,29.78,7.0,ESE,4.6,-,N/A,,Clear,110,2012-10-22 03:15:00
10:35 PM,60.1,57.2,90,29.78,5.0,NNW,4.6,-,N/A,,Scattered Clouds,340,2012-10-22 03:35:00
10:55 PM,63.1,59.2,87,29.78,7.0,North,4.6,-,N/A,,Scattered Clouds,350,2012-10-22 03:55:00
11:15 PM,62.1,58.6,89,29.78,7.0,North,4.6,-,N/A,,Mostly Cloudy,360,2012-10-22 04:15:00
11:35 PM,62.8,59.4,89,29.78,7.0,NNW,6.9,-,N/A,,Overcast,340,2012-10-22 04:35:00
11:55 PM,62.6,54.9,76,29.79,10.0,NNW,8.1,-,N/A,,Overcast,330,2012-10-22 04:55:00